| time (UTC) | temp F | wind direction | speed MPH | gust MPH | rain 1hr in | rain 24hr in | rain mn in | humidity % | barometer mb |
| 20260906145020 | 82 | 159 | 3.0 | 5.0 | 0.00 | 0.00 | 0.00 | 79 | 1016.1 |
| 20260906144527 | 82 | 173 | 3.0 | 5.0 | 0.00 | 0.00 | 0.00 | 78 | 1016.2 |
| 20260906144015 | 82 | 153 | 2.0 | 3.0 | 0.00 | 0.00 | 0.00 | 78 | 1016.1 |
| 20260906143521 | 82 | 152 | 3.0 | 4.0 | 0.00 | 0.00 | 0.00 | 78 | 1016.0 |
| 20260906143028 | 81 | 161 | 3.0 | 3.0 | 0.00 | 0.00 | 0.00 | 78 | 1016.0 |
| 20260906142516 | 81 | 167 | 2.0 | 3.0 | 0.00 | 0.00 | 0.00 | 79 | 1015.9 |
| 20260906142023 | 81 | 150 | 1.0 | 2.0 | 0.00 | 0.00 | 0.00 | 80 | 1015.8 |
| 20260906141529 | 81 | 145 | 2.0 | 3.0 | 0.00 | 0.00 | 0.00 | 80 | 1015.8 |
| 20260906141017 | 80 | 104 | 2.0 | 3.0 | 0.00 | 0.00 | 0.00 | 80 | 1015.8 |
| 20260906140544 | 80 | 111 | 2.0 | 3.0 | 0.00 | 0.00 | 0.00 | 81 | 1015.8 |
| 20260906140030 | 80 | 143 | 2.0 | 3.0 | 0.00 | 0.00 | 0.00 | 81 | 1015.8 |
| 20260906135519 | 80 | 136 | 2.0 | 3.0 | 0.00 | 0.00 | 0.00 | 81 | 1015.8 |
| 20260906135045 | 80 | 138 | 2.0 | 3.0 | 0.00 | 0.00 | 0.00 | 81 | 1015.7 |
| 20260906134532 | 80 | 112 | 0.0 | 2.0 | 0.00 | 0.00 | 0.00 | 81 | 1015.6 |
| 20260906134020 | 80 | 149 | 1.0 | 3.0 | 0.00 | 0.00 | 0.00 | 81 | 1015.6 |
| 20260906133547 | 80 | 134 | 2.0 | 3.0 | 0.00 | 0.00 | 0.00 | 82 | 1015.5 |
| 20260906133014 | 80 | 158 | 1.0 | 3.0 | 0.00 | 0.00 | 0.00 | 82 | 1015.5 |
| 20260906132521 | 79 | 136 | 2.0 | 3.0 | 0.00 | 0.00 | 0.00 | 82 | 1015.3 |
| 20260906132028 | 79 | 156 | 2.0 | 3.0 | 0.00 | 0.00 | 0.00 | 82 | 1015.3 |
| 20260906131516 | 79 | 164 | 2.0 | 3.0 | 0.00 | 0.00 | 0.00 | 82 | 1015.3 |
| 20260906131023 | 79 | 170 | 2.0 | 4.0 | 0.00 | 0.00 | 0.00 | 82 | 1015.3 |
| 20260906130529 | 79 | 165 | 2.0 | 3.0 | 0.00 | 0.00 | 0.00 | 82 | 1015.3 |
| 20260906130017 | 79 | 144 | 1.0 | 2.0 | 0.00 | 0.00 | 0.00 | 82 | 1015.1 |
| 20260906125524 | 79 | 148 | 1.0 | 2.0 | 0.00 | 0.00 | 0.00 | 83 | 1015.1 |
| 20260906125031 | 79 | 0.0 | 0.0 | 0.00 | 0.00 | 0.00 | 84 | 1015.0 | |
| 20260906124519 | 77 | 0.0 | 0.0 | 0.00 | 0.00 | 0.00 | 85 | 1014.9 | |
| 20260906124025 | 77 | 0.0 | 0.0 | 0.00 | 0.00 | 0.00 | 86 | 1014.9 | |
| 20260906123532 | 77 | 192 | 1.0 | 3.0 | 0.00 | 0.00 | 0.00 | 86 | 1014.7 |
| 20260906123020 | 76 | 180 | 0.0 | 3.0 | 0.00 | 0.00 | 0.00 | 87 | 1014.7 |
| 20260906122527 | 76 | 0.0 | 0.0 | 0.00 | 0.00 | 0.00 | 87 | 1014.5 | |
| 20260906122033 | 76 | 0.0 | 0.0 | 0.00 | 0.00 | 0.00 | 87 | 1014.5 | |
| 20260906121521 | 76 | 135 | 0.0 | 2.0 | 0.00 | 0.00 | 0.00 | 88 | 1014.4 |
| 20260906121028 | 76 | 0.0 | 0.0 | 0.00 | 0.00 | 0.00 | 88 | 1014.3 | |
| 20260906120516 | 76 | 0.0 | 0.0 | 0.00 | 0.00 | 0.00 | 88 | 1014.3 | |
| 20260906120022 | 76 | 0.0 | 0.0 | 0.00 | 0.00 | 0.00 | 88 | 1014.2 | |
| 20260906115529 | 76 | 0.0 | 0.0 | 0.00 | 0.00 | 0.00 | 87 | 1014.2 | |
| 20260906115017 | 76 | 0.0 | 0.0 | 0.00 | 0.00 | 0.00 | 87 | 1014.0 | |
| 20260906114523 | 76 | 0.0 | 0.0 | 0.00 | 0.00 | 0.00 | 87 | 1013.9 | |
| 20260906114051 | 76 | 0.0 | 0.0 | 0.00 | 0.00 | 0.00 | 87 | 1013.9 | |
| 20260906113519 | 76 | 0.0 | 0.0 | 0.00 | 0.00 | 0.00 | 86 | 1013.7 | |
| 20260906113025 | 76 | 0.0 | 0.0 | 0.00 | 0.00 | 0.00 | 85 | 1013.7 | |
| 20260906112531 | 76 | 0.0 | 0.0 | 0.00 | 0.00 | 0.00 | 85 | 1013.7 | |
| 20260906112020 | 77 | 0.0 | 0.0 | 0.00 | 0.00 | 0.00 | 85 | 1013.7 | |
| 20260906111526 | 77 | 0.0 | 0.0 | 0.00 | 0.00 | 0.00 | 85 | 1013.7 | |
| 20260906111033 | 77 | 0.0 | 0.0 | 0.00 | 0.00 | 0.00 | 85 | 1013.7 | |
| 20260906110521 | 77 | 0.0 | 0.0 | 0.00 | 0.00 | 0.00 | 85 | 1013.7 | |
| 20260906110027 | 77 | 199 | 1.0 | 3.0 | 0.00 | 0.00 | 0.00 | 85 | 1013.8 |
| 20260906105536 | 77 | 215 | 1.0 | 2.0 | 0.00 | 0.00 | 0.00 | 85 | 1013.8 |
| 20260906105022 | 77 | 213 | 2.0 | 3.0 | 0.00 | 0.00 | 0.00 | 84 | 1013.7 |
| 20260906104529 | 77 | 210 | 2.0 | 3.0 | 0.00 | 0.00 | 0.00 | 84 | 1013.7 |
| 20260906104037 | 77 | 219 | 2.0 | 4.0 | 0.00 | 0.00 | 0.00 | 84 | 1013.7 |
| 20260906103524 | 77 | 195 | 2.0 | 4.0 | 0.00 | 0.00 | 0.00 | 84 | 1013.6 |
| 20260906103030 | 77 | 215 | 2.0 | 3.0 | 0.00 | 0.00 | 0.00 | 84 | 1013.6 |
| 20260906102518 | 77 | 224 | 2.0 | 4.0 | 0.00 | 0.00 | 0.00 | 84 | 1013.4 |
| 20260906102045 | 77 | 207 | 2.0 | 6.0 | 0.00 | 0.00 | 0.00 | 84 | 1013.4 |
| 20260906101531 | 77 | 206 | 2.0 | 4.0 | 0.00 | 0.00 | 0.00 | 84 | 1013.4 |
| 20260906101019 | 78 | 222 | 2.0 | 3.0 | 0.00 | 0.00 | 0.00 | 84 | 1013.4 |
| 20260906100526 | 78 | 210 | 2.0 | 4.0 | 0.00 | 0.00 | 0.00 | 84 | 1013.4 |
| 20260906100032 | 78 | 217 | 1.0 | 3.0 | 0.00 | 0.00 | 0.00 | 83 | 1013.6 |
| 20260906095521 | 78 | 205 | 3.0 | 4.0 | 0.00 | 0.00 | 0.00 | 83 | 1013.6 |
| 20260906095027 | 78 | 199 | 4.0 | 6.0 | 0.00 | 0.00 | 0.00 | 83 | 1013.6 |
| 20260906094515 | 78 | 209 | 3.0 | 5.0 | 0.00 | 0.00 | 0.00 | 83 | 1013.6 |
| 20260906094022 | 78 | 214 | 3.0 | 4.0 | 0.00 | 0.00 | 0.00 | 83 | 1013.5 |
| 20260906093529 | 78 | 206 | 3.0 | 5.0 | 0.00 | 0.00 | 0.00 | 82 | 1013.5 |
| 20260906093017 | 78 | 200 | 3.0 | 5.0 | 0.00 | 0.00 | 0.00 | 82 | 1013.5 |
| 20260906092543 | 78 | 204 | 3.0 | 5.0 | 0.00 | 0.00 | 0.00 | 82 | 1013.5 |
| 20260906092030 | 78 | 224 | 3.0 | 5.0 | 0.00 | 0.00 | 0.00 | 82 | 1013.5 |
| 20260906091558 | 78 | 200 | 3.0 | 5.0 | 0.00 | 0.00 | 0.00 | 82 | 1013.5 |
| 20260906091024 | 78 | 211 | 2.0 | 4.0 | 0.00 | 0.00 | 0.00 | 81 | 1013.6 |
| 20260906090551 | 79 | 206 | 4.0 | 7.0 | 0.00 | 0.00 | 0.00 | 81 | 1013.6 |
| 20260906090059 | 79 | 205 | 3.0 | 6.0 | 0.00 | 0.00 | 0.00 | 81 | 1013.5 |
| 20260906085526 | 79 | 185 | 5.0 | 7.0 | 0.00 | 0.00 | 0.00 | 81 | 1013.5 |
| 20260906085032 | 79 | 184 | 4.0 | 6.0 | 0.00 | 0.00 | 0.00 | 81 | 1013.4 |
| 20260906084541 | 79 | 195 | 4.0 | 6.0 | 0.00 | 0.00 | 0.00 | 81 | 1013.4 |
| 20260906084027 | 79 | 162 | 4.0 | 7.0 | 0.00 | 0.00 | 0.00 | 80 | 1013.4 |
| 20260906083515 | 79 | 202 | 4.0 | 8.0 | 0.00 | 0.00 | 0.00 | 80 | 1013.5 |
| 20260906083022 | 79 | 209 | 4.0 | 7.0 | 0.00 | 0.00 | 0.00 | 80 | 1013.5 |
| 20260906082528 | 80 | 189 | 4.0 | 6.0 | 0.00 | 0.00 | 0.00 | 80 | 1013.5 |
| 20260906082016 | 80 | 201 | 4.0 | 5.0 | 0.00 | 0.00 | 0.00 | 80 | 1013.5 |
| 20260906081523 | 80 | 187 | 4.0 | 6.0 | 0.00 | 0.00 | 0.00 | 80 | 1013.5 |
| 20260906081029 | 80 | 192 | 4.0 | 6.0 | 0.00 | 0.00 | 0.00 | 80 | 1013.6 |
| 20260906080517 | 80 | 198 | 4.0 | 6.0 | 0.00 | 0.00 | 0.00 | 80 | 1013.6 |
| 20260906080024 | 80 | 202 | 5.0 | 9.0 | 0.00 | 0.00 | 0.00 | 79 | 1013.8 |
| 20260906075611 | 80 | 218 | 5.0 | 8.0 | 0.00 | 0.00 | 0.00 | 79 | 1013.8 |
| 20260906075019 | 80 | 202 | 5.0 | 7.0 | 0.00 | 0.00 | 0.00 | 79 | 1013.9 |
| 20260906074525 | 80 | 193 | 5.0 | 10.0 | 0.00 | 0.00 | 0.00 | 79 | 1013.9 |
| 20260906074032 | 80 | 208 | 5.0 | 9.0 | 0.00 | 0.00 | 0.00 | 79 | 1013.9 |
| 20260906073520 | 80 | 202 | 5.0 | 9.0 | 0.00 | 0.00 | 0.00 | 79 | 1014.0 |
| 20260906073027 | 81 | 206 | 5.0 | 6.0 | 0.00 | 0.00 | 0.00 | 79 | 1014.0 |
| 20260906072515 | 81 | 195 | 4.0 | 8.0 | 0.00 | 0.00 | 0.00 | 79 | 1014.2 |
| 20260906072022 | 81 | 199 | 5.0 | 8.0 | 0.00 | 0.00 | 0.00 | 79 | 1014.2 |
| 20260906071528 | 81 | 194 | 4.0 | 7.0 | 0.00 | 0.00 | 0.00 | 78 | 1014.3 |
| 20260906071036 | 81 | 197 | 4.0 | 6.0 | 0.00 | 0.00 | 0.00 | 78 | 1014.3 |
| 20260906070543 | 81 | 191 | 5.0 | 8.0 | 0.00 | 0.00 | 0.00 | 78 | 1014.3 |
| 20260906070049 | 81 | 215 | 5.0 | 7.0 | 0.00 | 0.00 | 0.00 | 77 | 1014.4 |
| 20260906065517 | 81 | 189 | 4.0 | 6.0 | 0.00 | 0.00 | 0.00 | 77 | 1014.4 |
| 20260906065024 | 81 | 168 | 5.0 | 7.0 | 0.00 | 0.00 | 0.00 | 77 | 1014.5 |
| 20260906064531 | 81 | 199 | 7.0 | 10.0 | 0.00 | 0.00 | 0.00 | 77 | 1014.5 |
| 20260906064039 | 81 | 201 | 6.0 | 8.0 | 0.00 | 0.00 | 0.00 | 77 | 1014.5 |
| 20260906063525 | 82 | 213 | 5.0 | 10.0 | 0.00 | 0.00 | 0.00 | 76 | 1014.4 |
| 20260906063032 | 82 | 190 | 5.0 | 6.0 | 0.00 | 0.00 | 0.00 | 76 | 1014.4 |
| 20260906062520 | 82 | 188 | 5.0 | 7.0 | 0.00 | 0.00 | 0.00 | 76 | 1014.6 |
| 20260906062027 | 82 | 188 | 6.0 | 9.0 | 0.00 | 0.00 | 0.00 | 76 | 1014.6 |
| 20260906061515 | 82 | 200 | 5.0 | 8.0 | 0.00 | 0.00 | 0.00 | 76 | 1014.7 |
| 20260906061021 | 82 | 185 | 5.0 | 8.0 | 0.00 | 0.00 | 0.00 | 75 | 1014.7 |
| 20260906060528 | 82 | 182 | 5.0 | 6.0 | 0.00 | 0.00 | 0.00 | 75 | 1014.7 |
| 20260906060016 | 82 | 206 | 5.0 | 7.0 | 0.00 | 0.00 | 0.00 | 75 | 1014.6 |
| 20260906055523 | 82 | 191 | 5.0 | 7.0 | 0.00 | 0.00 | 0.00 | 75 | 1014.6 |
| 20260906055029 | 82 | 158 | 6.0 | 9.0 | 0.00 | 0.00 | 0.00 | 75 | 1014.5 |
| 20260906054517 | 82 | 169 | 6.0 | 9.0 | 0.00 | 0.00 | 0.00 | 75 | 1014.5 |
| 20260906054024 | 82 | 190 | 4.0 | 6.0 | 0.00 | 0.00 | 0.00 | 75 | 1014.5 |
| 20260906053530 | 82 | 169 | 5.0 | 7.0 | 0.00 | 0.00 | 0.00 | 75 | 1014.6 |
| 20260906053039 | 83 | 175 | 5.0 | 7.0 | 0.00 | 0.00 | 0.00 | 74 | 1014.6 |
| 20260906052526 | 83 | 178 | 4.0 | 6.0 | 0.00 | 0.00 | 0.00 | 74 | 1014.6 |
| 20260906052052 | 83 | 191 | 5.0 | 8.0 | 0.00 | 0.00 | 0.00 | 74 | 1014.6 |
| 20260906051520 | 83 | 153 | 6.0 | 10.0 | 0.00 | 0.00 | 0.00 | 74 | 1014.7 |
| 20260906051027 | 83 | 156 | 5.0 | 8.0 | 0.00 | 0.00 | 0.00 | 74 | 1014.7 |
| 20260906050515 | 83 | 172 | 5.0 | 7.0 | 0.00 | 0.00 | 0.00 | 74 | 1014.8 |
| 20260906050041 | 83 | 139 | 6.0 | 10.0 | 0.00 | 0.00 | 0.00 | 73 | 1014.8 |
| 20260906045528 | 83 | 189 | 4.0 | 6.0 | 0.00 | 0.00 | 0.00 | 73 | 1014.8 |
| 20260906045016 | 83 | 201 | 5.0 | 8.0 | 0.00 | 0.00 | 0.00 | 73 | 1014.8 |
| 20260906044523 | 83 | 167 | 6.0 | 12.0 | 0.00 | 0.00 | 0.00 | 72 | 1014.7 |
| 20260906044029 | 83 | 205 | 4.0 | 7.0 | 0.00 | 0.00 | 0.00 | 72 | 1014.7 |
| 20260906043517 | 83 | 171 | 6.0 | 9.0 | 0.00 | 0.00 | 0.00 | 72 | 1014.7 |
| 20260906043024 | 83 | 163 | 4.0 | 6.0 | 0.00 | 0.00 | 0.00 | 71 | 1014.7 |
| 20260906042530 | 83 | 163 | 6.0 | 8.0 | 0.00 | 0.00 | 0.00 | 71 | 1014.5 |
| 20260906042023 | 83 | 143 | 3.0 | 5.0 | 0.00 | 0.00 | 0.00 | 70 | 1014.5 |
| 20260906041525 | 83 | 172 | 4.0 | 6.0 | 0.00 | 0.00 | 0.00 | 70 | 1014.5 |
| 20260906041031 | 83 | 157 | 5.0 | 6.0 | 0.00 | 0.00 | 0.00 | 70 | 1014.6 |
| 20260906040519 | 83 | 150 | 5.0 | 6.0 | 0.00 | 0.00 | 0.00 | 70 | 1014.6 |
| 20260906040026 | 84 | 130 | 6.0 | 8.0 | 0.00 | 0.00 | 0.00 | 69 | 1014.6 |
| 20260906035533 | 84 | 154 | 5.0 | 7.0 | 0.00 | 0.00 | 0.00 | 69 | 1014.6 |
| 20260906035021 | 84 | 155 | 6.0 | 8.0 | 0.00 | 0.00 | 0.00 | 68 | 1014.5 |
| 20260906034628 | 84 | 146 | 5.0 | 8.0 | 0.00 | 0.00 | 0.00 | 68 | 1014.5 |
| 20260906034015 | 84 | 127 | 6.0 | 9.0 | 0.00 | 0.00 | 0.00 | 68 | 1014.5 |
| 20260906033522 | 84 | 139 | 4.0 | 7.0 | 0.00 | 0.00 | 0.00 | 67 | 1014.4 |
| 20260906033049 | 84 | 147 | 4.0 | 7.0 | 0.00 | 0.00 | 0.00 | 67 | 1014.4 |
| 20260906032517 | 85 | 142 | 5.0 | 7.0 | 0.00 | 0.00 | 0.00 | 66 | 1014.3 |
| 20260906032023 | 85 | 118 | 5.0 | 7.0 | 0.00 | 0.00 | 0.00 | 66 | 1014.3 |
| 20260906031530 | 85 | 144 | 6.0 | 10.0 | 0.00 | 0.00 | 0.00 | 66 | 1014.2 |
| 20260906031018 | 85 | 109 | 7.0 | 10.0 | 0.00 | 0.00 | 0.00 | 65 | 1014.1 |
| 20260906030544 | 85 | 111 | 5.0 | 8.0 | 0.00 | 0.00 | 0.00 | 65 | 1014.1 |
| 20260906030031 | 86 | 121 | 6.0 | 8.0 | 0.00 | 0.00 | 0.00 | 64 | 1014.0 |
| 20260906025520 | 86 | 146 | 5.0 | 9.0 | 0.00 | 0.00 | 0.00 | 64 | 1014.0 |
| 20260906025026 | 86 | 110 | 6.0 | 9.0 | 0.00 | 0.00 | 0.00 | 63 | 1013.7 |
| 20260906024553 | 86 | 127 | 7.0 | 12.0 | 0.00 | 0.00 | 0.00 | 62 | 1013.6 |
| 20260906024041 | 86 | 118 | 7.0 | 10.0 | 0.00 | 0.00 | 0.00 | 62 | 1013.5 |
| 20260906023547 | 87 | 133 | 4.0 | 6.0 | 0.00 | 0.00 | 0.00 | 62 | 1013.3 |
| 20260906023016 | 87 | 144 | 5.0 | 9.0 | 0.00 | 0.00 | 0.00 | 61 | 1013.3 |
| 20260906022542 | 87 | 156 | 6.0 | 8.0 | 0.00 | 0.00 | 0.00 | 61 | 1012.9 |
| 20260906022028 | 87 | 124 | 6.0 | 8.0 | 0.00 | 0.00 | 0.00 | 61 | 1012.9 |
| 20260906021516 | 87 | 121 | 5.0 | 8.0 | 0.00 | 0.00 | 0.00 | 61 | 1012.8 |
| 20260906021023 | 87 | 113 | 6.0 | 8.0 | 0.00 | 0.00 | 0.00 | 61 | 1012.7 |
| 20260906020530 | 88 | 99 | 7.0 | 9.0 | 0.00 | 0.00 | 0.00 | 61 | 1012.7 |
| 20260906020018 | 88 | 118 | 6.0 | 10.0 | 0.00 | 0.00 | 0.00 | 60 | 1012.6 |
| 20260906015524 | 88 | 153 | 6.0 | 11.0 | 0.00 | 0.00 | 0.00 | 60 | 1012.6 |
| 20260906015031 | 88 | 114 | 6.0 | 10.0 | 0.00 | 0.00 | 0.00 | 60 | 1012.6 |
| 20260906014539 | 89 | 130 | 5.0 | 7.0 | 0.00 | 0.00 | 0.00 | 59 | 1012.6 |
| 20260906014026 | 89 | 122 | 5.0 | 7.0 | 0.00 | 0.00 | 0.00 | 59 | 1012.5 |
| 20260906013532 | 89 | 126 | 7.0 | 10.0 | 0.00 | 0.00 | 0.00 | 59 | 1012.4 |
| 20260906013041 | 89 | 138 | 7.0 | 10.0 | 0.00 | 0.00 | 0.00 | 58 | 1012.4 |
| 20260906012527 | 90 | 145 | 6.0 | 11.0 | 0.00 | 0.00 | 0.00 | 57 | 1012.2 |
| 20260906012015 | 90 | 148 | 8.0 | 13.0 | 0.00 | 0.00 | 0.00 | 56 | 1012.2 |
| 20260906011522 | 91 | 144 | 8.0 | 11.0 | 0.00 | 0.00 | 0.00 | 55 | 1012.2 |
| 20260906011028 | 91 | 114 | 6.0 | 8.0 | 0.00 | 0.00 | 0.00 | 54 | 1012.2 |
| 20260906010516 | 91 | 137 | 6.0 | 11.0 | 0.00 | 0.00 | 0.00 | 53 | 1012.2 |
| 20260906010043 | 91 | 109 | 6.0 | 8.0 | 0.00 | 0.00 | 0.00 | 53 | 1012.2 |
| 20260906005529 | 92 | 95 | 5.0 | 7.0 | 0.00 | 0.00 | 0.00 | 53 | 1012.2 |
| 20260906005017 | 92 | 128 | 6.0 | 8.0 | 0.00 | 0.00 | 0.00 | 52 | 1012.2 |
| 20260906004524 | 92 | 124 | 6.0 | 10.0 | 0.00 | 0.00 | 0.00 | 51 | 1012.2 |
| 20260906004030 | 93 | 139 | 7.0 | 10.0 | 0.00 | 0.00 | 0.00 | 51 | 1012.1 |
| 20260906003539 | 94 | 123 | 8.0 | 11.0 | 0.00 | 0.00 | 0.00 | 49 | 1012.0 |
| 20260906003025 | 95 | 94 | 5.0 | 9.0 | 0.00 | 0.00 | 0.00 | 46 | 1012.0 |
| 20260906002532 | 95 | 85 | 3.0 | 4.0 | 0.00 | 0.00 | 0.00 | 46 | 1012.0 |
| 20260906002020 | 95 | 135 | 5.0 | 7.0 | 0.00 | 0.00 | 0.00 | 45 | 1012.0 |
| 20260906001526 | 95 | 172 | 5.0 | 7.0 | 0.00 | 0.00 | 0.00 | 45 | 1012.0 |
| 20260906001033 | 95 | 131 | 5.0 | 6.0 | 0.00 | 0.00 | 0.00 | 45 | 1012.0 |
| 20260906000521 | 96 | 157 | 5.0 | 7.0 | 0.00 | 0.00 | 0.00 | 45 | 1012.0 |
| 20260906000028 | 97 | 174 | 3.0 | 4.0 | 0.00 | 0.00 | 0.00 | 44 | 1011.9 |
| 20260905235516 | 97 | 107 | 3.0 | 5.0 | 0.00 | 0.00 | 0.00 | 44 | 1011.9 |
| 20260905235022 | 97 | 66 | 4.0 | 7.0 | 0.00 | 0.00 | 0.00 | 44 | 1011.8 |
| 20260905234549 | 97 | 61 | 5.0 | 7.0 | 0.00 | 0.00 | 0.00 | 43 | 1011.7 |
| 20260905234017 | 98 | 94 | 4.0 | 7.0 | 0.00 | 0.00 | 0.00 | 42 | 1011.7 |
| 20260905233523 | 99 | 57 | 4.0 | 8.0 | 0.00 | 0.00 | 0.00 | 42 | 1011.8 |
| 20260905233030 | 99 | 92 | 4.0 | 8.0 | 0.00 | 0.00 | 0.00 | 41 | 1011.8 |
| 20260905232518 | 99 | 319 | 3.0 | 6.0 | 0.00 | 0.00 | 0.00 | 42 | 1011.9 |
| 20260905232025 | 98 | 140 | 4.0 | 7.0 | 0.00 | 0.00 | 0.00 | 42 | 1011.9 |
| 20260905231531 | 98 | 155 | 5.0 | 9.0 | 0.00 | 0.00 | 0.00 | 42 | 1011.9 |
| 20260905231019 | 99 | 14 | 4.0 | 6.0 | 0.00 | 0.00 | 0.00 | 41 | 1011.8 |
| 20260905230525 | 99 | 86 | 3.0 | 5.0 | 0.00 | 0.00 | 0.00 | 41 | 1011.8 |
| 20260905230032 | 99 | 83 | 3.0 | 5.0 | 0.00 | 0.00 | 0.00 | 41 | 1011.8 |
| 20260905225520 | 98 | 120 | 4.0 | 6.0 | 0.00 | 0.00 | 0.00 | 41 | 1011.8 |
| 20260905225027 | 98 | 113 | 3.0 | 6.0 | 0.00 | 0.00 | 0.00 | 41 | 1011.9 |
| 20260905224515 | 98 | 162 | 5.0 | 7.0 | 0.00 | 0.00 | 0.00 | 42 | 1011.9 |
| 20260905224022 | 98 | 131 | 6.0 | 9.0 | 0.00 | 0.00 | 0.00 | 42 | 1011.9 |
| 20260905223528 | 98 | 115 | 5.0 | 7.0 | 0.00 | 0.00 | 0.00 | 42 | 1011.9 |
| 20260905223036 | 97 | 232 | 3.0 | 6.0 | 0.00 | 0.00 | 0.00 | 43 | 1011.9 |
| 20260905222543 | 96 | 203 | 0.0 | 1.0 | 0.00 | 0.00 | 0.00 | 44 | 1012.1 |
| 20260905222029 | 96 | 145 | 2.0 | 4.0 | 0.00 | 0.00 | 0.00 | 44 | 1012.2 |
| 20260905221517 | 97 | 132 | 4.0 | 5.0 | 0.00 | 0.00 | 0.00 | 43 | 1012.1 |
| 20260905221044 | 97 | 87 | 3.0 | 4.0 | 0.00 | 0.00 | 0.00 | 43 | 1012.0 |
| 20260905220531 | 98 | 354 | 5.0 | 8.0 | 0.00 | 0.00 | 0.00 | 43 | 1012.0 |
| 20260905220018 | 98 | 79 | 4.0 | 7.0 | 0.00 | 0.00 | 0.00 | 43 | 1012.2 |
| 20260905215525 | 98 | 19 | 5.0 | 8.0 | 0.00 | 0.00 | 0.00 | 43 | 1012.2 |
| 20260905215032 | 98 | 82 | 4.0 | 5.0 | 0.00 | 0.00 | 0.00 | 43 | 1012.2 |
| 20260905214520 | 97 | 159 | 3.0 | 5.0 | 0.00 | 0.00 | 0.00 | 43 | 1012.2 |
| 20260905214026 | 96 | 261 | 2.0 | 5.0 | 0.00 | 0.00 | 0.00 | 44 | 1012.3 |
| 20260905213533 | 96 | 158 | 3.0 | 5.0 | 0.00 | 0.00 | 0.00 | 43 | 1012.4 |
| 20260905213041 | 97 | 114 | 3.0 | 4.0 | 0.00 | 0.00 | 0.00 | 43 | 1012.4 |
| 20260905212528 | 98 | 68 | 4.0 | 6.0 | 0.00 | 0.00 | 0.00 | 41 | 1012.4 |
| 20260905212056 | 99 | 100 | 4.0 | 8.0 | 0.00 | 0.00 | 0.00 | 41 | 1012.4 |
| 20260905211522 | 99 | 125 | 5.0 | 8.0 | 0.00 | 0.00 | 0.00 | 41 | 1012.5 |
| 20260905211029 | 100 | 160 | 4.0 | 7.0 | 0.00 | 0.00 | 0.00 | 40 | 1012.6 |
| 20260905210517 | 99 | 204 | 3.0 | 5.0 | 0.00 | 0.00 | 0.00 | 40 | 1012.6 |
| 20260905210024 | 99 | 126 | 6.0 | 9.0 | 0.00 | 0.00 | 0.00 | 40 | 1012.7 |
| 20260905205530 | 99 | 2 | 6.0 | 9.0 | 0.00 | 0.00 | 0.00 | 40 | 1012.7 |
| 20260905205018 | 100 | 119 | 4.0 | 6.0 | 0.00 | 0.00 | 0.00 | 40 | 1013.0 |
| 20260905204525 | 100 | 310 | 3.0 | 5.0 | 0.00 | 0.00 | 0.00 | 40 | 1013.1 |
| 20260905204031 | 99 | 297 | 4.0 | 7.0 | 0.00 | 0.00 | 0.00 | 40 | 1013.1 |
| 20260905203540 | 99 | 161 | 4.0 | 6.0 | 0.00 | 0.00 | 0.00 | 41 | 1013.2 |
| 20260905203026 | 98 | 80 | 4.0 | 7.0 | 0.00 | 0.00 | 0.00 | 42 | 1013.2 |
| 20260905202533 | 98 | 108 | 5.0 | 8.0 | 0.00 | 0.00 | 0.00 | 42 | 1013.3 |
| 20260905202021 | 99 | 131 | 5.0 | 7.0 | 0.00 | 0.00 | 0.00 | 42 | 1013.3 |
| 20260905201528 | 98 | 202 | 4.0 | 5.0 | 0.00 | 0.00 | 0.00 | 43 | 1013.3 |
| 20260905201016 | 99 | 128 | 4.0 | 6.0 | 0.00 | 0.00 | 0.00 | 42 | 1013.5 |
| 20260905200542 | 99 | 80 | 4.0 | 7.0 | 0.00 | 0.00 | 0.00 | 42 | 1013.5 |
| 20260905200029 | 101 | 223 | 3.0 | 7.0 | 0.00 | 0.00 | 0.00 | 40 | 1013.8 |
| 20260905195517 | 100 | 250 | 4.0 | 6.0 | 0.00 | 0.00 | 0.00 | 41 | 1013.8 |
| 20260905195023 | 98 | 126 | 4.0 | 5.0 | 0.00 | 0.00 | 0.00 | 43 | 1013.8 |
| 20260905194530 | 97 | 155 | 3.0 | 6.0 | 0.00 | 0.00 | 0.00 | 43 | 1013.8 |
| 20260905194019 | 98 | 152 | 6.0 | 9.0 | 0.00 | 0.00 | 0.00 | 44 | 1013.9 |
| 20260905193525 | 98 | 170 | 3.0 | 7.0 | 0.00 | 0.00 | 0.00 | 44 | 1014.1 |
| 20260905193031 | 98 | 200 | 5.0 | 8.0 | 0.00 | 0.00 | 0.00 | 44 | 1014.1 |
| 20260905192520 | 98 | 165 | 6.0 | 9.0 | 0.00 | 0.00 | 0.00 | 45 | 1014.3 |
| 20260905192046 | 97 | 200 | 4.0 | 7.0 | 0.00 | 0.00 | 0.00 | 46 | 1014.3 |
| 20260905191532 | 97 | 126 | 5.0 | 7.0 | 0.00 | 0.00 | 0.00 | 46 | 1014.4 |
| 20260905191021 | 97 | 157 | 4.0 | 7.0 | 0.00 | 0.00 | 0.00 | 46 | 1014.5 |
| 20260905190527 | 97 | 89 | 5.0 | 8.0 | 0.00 | 0.00 | 0.00 | 46 | 1014.5 |
| 20260905190015 | 97 | 61 | 3.0 | 5.0 | 0.00 | 0.00 | 0.00 | 46 | 1014.7 |
| 20260905185522 | 96 | 134 | 4.0 | 6.0 | 0.00 | 0.00 | 0.00 | 48 | 1014.7 |
| 20260905185028 | 96 | 159 | 6.0 | 11.0 | 0.00 | 0.00 | 0.00 | 48 | 1014.9 |
| 20260905184516 | 97 | 201 | 5.0 | 8.0 | 0.00 | 0.00 | 0.00 | 48 | 1014.9 |
| 20260905184023 | 97 | 173 | 4.0 | 7.0 | 0.00 | 0.00 | 0.00 | 47 | 1015.0 |
| 20260905183530 | 97 | 197 | 4.0 | 7.0 | 0.00 | 0.00 | 0.00 | 47 | 1015.0 |
| 20260905183018 | 96 | 180 | 7.0 | 13.0 | 0.00 | 0.00 | 0.00 | 48 | 1015.0 |
| 20260905182524 | 96 | 192 | 5.0 | 8.0 | 0.00 | 0.00 | 0.00 | 49 | 1015.2 |
| 20260905182030 | 97 | 175 | 5.0 | 8.0 | 0.00 | 0.00 | 0.00 | 47 | 1015.3 |
| 20260905181518 | 95 | 206 | 5.0 | 8.0 | 0.00 | 0.00 | 0.00 | 47 | 1015.3 |
| 20260905181025 | 95 | 166 | 6.0 | 8.0 | 0.00 | 0.00 | 0.00 | 47 | 1015.5 |
| 20260905180532 | 96 | 170 | 6.0 | 12.0 | 0.00 | 0.00 | 0.00 | 48 | 1015.5 |
| 20260905180040 | 96 | 142 | 5.0 | 7.0 | 0.00 | 0.00 | 0.00 | 49 | 1015.8 |
| 20260905175526 | 96 | 211 | 4.0 | 6.0 | 0.00 | 0.00 | 0.00 | 50 | 1015.8 |
| 20260905175053 | 95 | 168 | 5.0 | 8.0 | 0.00 | 0.00 | 0.00 | 51 | 1015.8 |
| 20260905174521 | 94 | 156 | 4.0 | 6.0 | 0.00 | 0.00 | 0.00 | 51 | 1015.8 |
| 20260905174028 | 95 | 226 | 4.0 | 6.0 | 0.00 | 0.00 | 0.00 | 51 | 1015.9 |
| 20260905173516 | 95 | 214 | 5.0 | 8.0 | 0.00 | 0.00 | 0.00 | 52 | 1016.0 |
| 20260905173022 | 94 | 210 | 4.0 | 7.0 | 0.00 | 0.00 | 0.00 | 54 | 1016.0 |
| 20260905172529 | 93 | 173 | 5.0 | 7.0 | 0.00 | 0.00 | 0.00 | 55 | 1016.1 |
| 20260905172017 | 93 | 166 | 5.0 | 8.0 | 0.00 | 0.00 | 0.00 | 54 | 1016.2 |
| 20260905171603 | 93 | 139 | 6.0 | 10.0 | 0.00 | 0.00 | 0.00 | 55 | 1016.2 |
| 20260905171030 | 93 | 152 | 6.0 | 8.0 | 0.00 | 0.00 | 0.00 | 55 | 1016.3 |
| 20260905170518 | 92 | 192 | 4.0 | 7.0 | 0.00 | 0.00 | 0.00 | 56 | 1016.3 |
| 20260905170045 | 93 | 141 | 6.0 | 8.0 | 0.00 | 0.00 | 0.00 | 55 | 1016.4 |
| 20260905165531 | 92 | 178 | 4.0 | 6.0 | 0.00 | 0.00 | 0.00 | 58 | 1016.4 |
| 20260905165040 | 91 | 205 | 4.0 | 8.0 | 0.00 | 0.00 | 0.00 | 62 | 1016.4 |
| 20260905164526 | 90 | 166 | 4.0 | 8.0 | 0.00 | 0.00 | 0.00 | 62 | 1016.4 |
| 20260905164053 | 90 | 140 | 4.0 | 7.0 | 0.00 | 0.00 | 0.00 | 62 | 1016.4 |
| 20260905163521 | 93 | 210 | 4.0 | 8.0 | 0.00 | 0.00 | 0.00 | 60 | 1016.4 |
| 20260905163048 | 92 | 234 | 4.0 | 6.0 | 0.00 | 0.00 | 0.00 | 62 | 1016.4 |
| 20260905162536 | 91 | 208 | 4.0 | 8.0 | 0.00 | 0.00 | 0.00 | 64 | 1016.4 |
| 20260905162022 | 91 | 219 | 4.0 | 6.0 | 0.00 | 0.00 | 0.00 | 65 | 1016.4 |
| 20260905161529 | 90 | 219 | 5.0 | 10.0 | 0.00 | 0.00 | 0.00 | 65 | 1016.4 |
| 20260905161017 | 90 | 225 | 4.0 | 7.0 | 0.00 | 0.00 | 0.00 | 65 | 1016.4 |
| 20260905160524 | 91 | 229 | 4.0 | 9.0 | 0.00 | 0.00 | 0.00 | 64 | 1016.4 |
| 20260905160050 | 89 | 203 | 4.0 | 7.0 | 0.00 | 0.00 | 0.00 | 68 | 1016.4 |
| 20260905155518 | 89 | 237 | 5.0 | 7.0 | 0.00 | 0.00 | 0.00 | 67 | 1016.4 |
| 20260905155024 | 90 | 222 | 5.0 | 8.0 | 0.00 | 0.00 | 0.00 | 66 | 1016.4 |
| 20260905154531 | 90 | 191 | 5.0 | 8.0 | 0.00 | 0.00 | 0.00 | 67 | 1016.4 |
| 20260905154019 | 89 | 210 | 5.0 | 9.0 | 0.00 | 0.00 | 0.00 | 69 | 1016.4 |
| 20260905153525 | 88 | 210 | 4.0 | 7.0 | 0.00 | 0.00 | 0.00 | 71 | 1016.4 |
| 20260905153032 | 89 | 213 | 5.0 | 7.0 | 0.00 | 0.00 | 0.00 | 69 | 1016.4 |
| 20260905152520 | 87 | 203 | 5.0 | 8.0 | 0.00 | 0.00 | 0.00 | 72 | 1016.5 |
| 20260905152026 | 87 | 191 | 5.0 | 7.0 | 0.00 | 0.00 | 0.00 | 72 | 1016.5 |
| 20260905151613 | 88 | 187 | 4.0 | 7.0 | 0.00 | 0.00 | 0.00 | 71 | 1016.5 |
| 20260905151021 | 88 | 217 | 6.0 | 9.0 | 0.00 | 0.00 | 0.00 | 71 | 1016.5 |
| 20260905150528 | 88 | 221 | 6.0 | 8.0 | 0.00 | 0.00 | 0.00 | 70 | 1016.5 |
| 20260905150016 | 88 | 238 | 5.0 | 9.0 | 0.00 | 0.00 | 0.00 | 70 | 1016.4 |
| 20260905145523 | 88 | 230 | 6.0 | 8.0 | 0.00 | 0.00 | 0.00 | 70 | 1016.4 |